Location: Dresden
(51.0483°N, 13.7137°E)
Time: 18:46:31
(UTC+01:00)

ISS - Pass Details

Date: 15 November 2017
Orbit: 402 x 407 km, 51.6° (Epoch: 20 November)

Event Time Altitude Azimuth Distance (km) Brightness Sun altitude
Exits shadow 06:28:09 - 255° (WSW) 1,616 -1.3 -8.5°
Reaches altitude 10° 06:29:04 10° 241° (WSW) 1,454 -1.4 -8.4°
Maximum altitude 06:30:05 11° 223° (SW) 1,385 -1.4 -8.2°
Drops below altitude 10° 06:31:06 10° 205° (SSW) 1,451 -1.1 -8.1°
Sets 06:34:25 0° 168° (SSE) 2,304 0.5 -7.6°
